• In Kazakhstan
  • List of Countries
  • For 7 days
  • Water Temperature
  • Satellite Maps
  • Weather Map
  • News
  • Weather Widgets
  • user-avatar
    Login

    Hourly Weather Viedma

    Today, 25 March, Monday

    Time Temperature Precipitation Wind Pressure Humidity
    00:00 +12°C° 0 mm 2 mps 765 mmHg 70%
    01:00 +11°C° 0 mm 1 mps 765 mmHg 72%
    02:00 +11°C° 0 mm 1 mps 765 mmHg 73%
    03:00 +10°C° 0 mm 1 mps 765 mmHg 75%
    04:00 +10°C° 0 mm 1 mps 765 mmHg 76%
    05:00 +10°C° 0 mm 1 mps 765 mmHg 78%
    06:00 +10°C° 0 mm 0 mps 765 mmHg 74%
    07:00 +11°C° 0 mm 0 mps 765 mmHg 70%
    08:00 +11°C° 0 mm 0 mps 765 mmHg 65%
    09:00 +14°C° 0 mm 1 mps 765 mmHg 59%
    10:00 +15°C° 0 mm 1 mps 766 mmHg 52%
    11:00 +16°C° 0 mm 1 mps 766 mmHg 46%
    12:00 +17°C° 0 mm 2 mps 766 mmHg 42%
    13:00 +18°C° 0 mm 2 mps 766 mmHg 38%
    14:00 +19°C° 0 mm 2 mps 765 mmHg 35%
    15:00 +19°C° 0 mm 3 mps 765 mmHg 38%
    16:00 +18°C° 0 mm 4 mps 765 mmHg 41%
    17:00 +17°C° 0 mm 5 mps 765 mmHg 44%
    18:00 +16°C° 0 mm 5 mps 765 mmHg 50%
    19:00 +14°C° 0 mm 5 mps 766 mmHg 56%
    20:00 +13°C° 0 mm 5 mps 766 mmHg 63%
    21:00 +13°C° 0 mm 4 mps 766 mmHg 63%
    22:00 +12°C° 0 mm 4 mps 766 mmHg 64%
    23:00 +12°C° 0 mm 3 mps 767 mmHg 65%

    Tomorrow, 26 March, Tuesday

    Time Temperature Precipitation Wind Pressure Humidity
    00:00 +12°C° 0 mm 3 mps 767 mmHg 66%
    01:00 +12°C° 0 mm 2 mps 767 mmHg 68%
    02:00 +12°C° 0 mm 2 mps 767 mmHg 70%
    03:00 +12°C° 0 mm 2 mps 767 mmHg 71%
    04:00 +12°C° 0 mm 2 mps 767 mmHg 72%
    05:00 +12°C° 0 mm 2 mps 767 mmHg 73%
    06:00 +12°C° 0 mm 2 mps 767 mmHg 71%
    07:00 +13°C° 0 mm 2 mps 768 mmHg 68%
    08:00 +14°C° 0 mm 2 mps 768 mmHg 65%
    09:00 +14°C° 0 mm 3 mps 768 mmHg 59%
    10:00 +17°C° 0 mm 3 mps 768 mmHg 53%
    11:00 +19°C° 0 mm 4 mps 768 mmHg 46%
    12:00 +19°C° 0 mm 4 mps 768 mmHg 43%
    13:00 +20°C° 0 mm 4 mps 768 mmHg 40%
    14:00 +21°C° 0 mm 4 mps 767 mmHg 37%
    15:00 +21°C° 0 mm 4 mps 767 mmHg 39%
    16:00 +20°C° 0 mm 5 mps 767 mmHg 40%
    17:00 +20°C° 0 mm 5 mps 766 mmHg 42%
    18:00 +17°C° 0 mm 5 mps 767 mmHg 48%
    19:00 +16°C° 0 mm 5 mps 767 mmHg 54%
    20:00 +14°C° 0 mm 6 mps 767 mmHg 61%
    21:00 +14°C° 0 mm 5 mps 767 mmHg 62%
    22:00 +14°C° 0 mm 5 mps 767 mmHg 64%
    23:00 +13°C° 0 mm 5 mps 767 mmHg 65%

    Day after tomorrow, 27 March, Wednesday

    Time Temperature Precipitation Wind Pressure Humidity
    00:00 +13°C° 0 mm 4 mps 767 mmHg 71%
    01:00 +13°C° 0 mm 4 mps 767 mmHg 76%
    02:00 +13°C° 0 mm 4 mps 767 mmHg 81%
    03:00 +12°C° 0 mm 4 mps 767 mmHg 79%
    04:00 +12°C° 0 mm 4 mps 766 mmHg 77%
    05:00 +12°C° 0 mm 4 mps 766 mmHg 74%
    06:00 +13°C° 0 mm 4 mps 766 mmHg 67%
    07:00 +13°C° 0 mm 5 mps 766 mmHg 61%
    08:00 +14°C° 0 mm 5 mps 766 mmHg 54%
    09:00 +16°C° 0 mm 6 mps 766 mmHg 47%
    10:00 +19°C° 0 mm 6 mps 766 mmHg 41%
    11:00 +21°C° 0 mm 7 mps 766 mmHg 35%
    12:00 +22°C° 0 mm 7 mps 766 mmHg 33%
    13:00 +23°C° 0 mm 7 mps 765 mmHg 31%
    14:00 +24°C° 0 mm 7 mps 765 mmHg 29%
    15:00 +24°C° 0 mm 7 mps 764 mmHg 29%
    16:00 +24°C° 0 mm 7 mps 763 mmHg 30%
    17:00 +24°C° 0 mm 7 mps 763 mmHg 31%
    18:00 +23°C° 0 mm 7 mps 763 mmHg 37%
    19:00 +21°C° 0 mm 7 mps 763 mmHg 44%
    20:00 +18°C° 0 mm 7 mps 763 mmHg 51%
    21:00 +19°C° 0 mm 6 mps 763 mmHg 53%
    22:00 +20°C° 0 mm 6 mps 763 mmHg 54%
    23:00 +20°C° 0 mm 6 mps 763 mmHg 56%

    28 March, Thursday

    Time Temperature Precipitation Wind Pressure Humidity
    00:00 +19°C° 0 mm 6 mps 763 mmHg 57%
    01:00 +18°C° 0 mm 7 mps 763 mmHg 59%
    02:00 +18°C° 0 mm 7 mps 762 mmHg 60%
    03:00 +18°C° 0 mm 7 mps 762 mmHg 62%
    04:00 +17°C° 0 mm 7 mps 762 mmHg 63%
    05:00 +17°C° 0 mm 7 mps 762 mmHg 64%
    06:00 +18°C° 0 mm 7 mps 762 mmHg 62%
    07:00 +18°C° 0 mm 8 mps 762 mmHg 59%
    08:00 +18°C° 0 mm 9 mps 762 mmHg 57%
    09:00 +21°C° 0 mm 9 mps 762 mmHg 52%
    10:00 +23°C° 0 mm 9 mps 762 mmHg 47%
    11:00 +26°C° 0 mm 9 mps 762 mmHg 41%
    12:00 +27°C° 0 mm 9 mps 761 mmHg 39%
    13:00 +29°C° 0 mm 9 mps 760 mmHg 36%
    14:00 +31°C° 0 mm 9 mps 760 mmHg 34%
    15:00 +31°C° 0 mm 9 mps 759 mmHg 34%
    16:00 +31°C° 0 mm 8 mps 759 mmHg 34%
    17:00 +31°C° 0 mm 8 mps 758 mmHg 35%
    18:00 +28°C° 0 mm 7 mps 758 mmHg 38%
    19:00 +27°C° 0 mm 7 mps 758 mmHg 41%
    20:00 +26°C° 0 mm 6 mps 758 mmHg 44%
    21:00 +26°C° 0 mm 7 mps 758 mmHg 45%
    22:00 +24°C° 0 mm 7 mps 758 mmHg 46%
    23:00 +24°C° 0 mm 8 mps 758 mmHg 47%

    29 March, Friday

    Time Temperature Precipitation Wind Pressure Humidity
    00:00 +23°C° 0 mm 8 mps 758 mmHg 51%
    01:00 +22°C° 0 mm 8 mps 757 mmHg 54%
    02:00 +21°C° 0 mm 8 mps 757 mmHg 57%
    03:00 +21°C° 0 mm 8 mps 757 mmHg 59%
    04:00 +21°C° 0 mm 8 mps 756 mmHg 61%
    05:00 +21°C° 0 mm 7 mps 756 mmHg 63%
    06:00 +21°C° 0 mm 8 mps 755 mmHg 59%
    07:00 +22°C° 0 mm 8 mps 755 mmHg 55%
    08:00 +22°C° 0 mm 9 mps 755 mmHg 51%
    09:00 +24°C° 0 mm 9 mps 754 mmHg 46%
    10:00 +27°C° 0 mm 9 mps 754 mmHg 41%
    11:00 +29°C° 0 mm 9 mps 753 mmHg 37%
    12:00 +31°C° 0.1 mm 9 mps 753 mmHg 36%
    13:00 +31°C° 0.1 mm 9 mps 752 mmHg 35%
    14:00 +32°C° 0.1 mm 9 mps 751 mmHg 34%
    15:00 +33°C° 0 mm 9 mps 750 mmHg 30%
    16:00 +33°C° 0 mm 8 mps 750 mmHg 27%
    17:00 +34°C° 0 mm 8 mps 749 mmHg 23%
    18:00 +32°C° 0 mm 8 mps 750 mmHg 23%
    19:00 +29°C° 0 mm 8 mps 750 mmHg 22%
    20:00 +28°C° 0 mm 8 mps 751 mmHg 21%
    21:00 +26°C° 0 mm 8 mps 752 mmHg 30%
    22:00 +23°C° 0 mm 7 mps 752 mmHg 38%
    23:00 +22°C° 0 mm 6 mps 753 mmHg 47%

    30 March, Saturday

    Time Temperature Precipitation Wind Pressure Humidity
    00:00 +21°C° 0.1 mm 5 mps 754 mmHg 47%
    01:00 +21°C° 0.1 mm 5 mps 754 mmHg 47%
    02:00 +21°C° 0.1 mm 4 mps 755 mmHg 46%
    03:00 +20°C° 0 mm 5 mps 755 mmHg 48%
    04:00 +18°C° 0 mm 7 mps 756 mmHg 50%
    05:00 +17°C° 0 mm 8 mps 757 mmHg 51%
    06:00 +17°C° 0 mm 8 mps 758 mmHg 50%
    07:00 +17°C° 0 mm 8 mps 759 mmHg 48%
    08:00 +17°C° 0 mm 7 mps 760 mmHg 46%
    09:00 +18°C° 0 mm 7 mps 760 mmHg 44%
    10:00 +20°C° 0 mm 6 mps 760 mmHg 42%
    11:00 +20°C° 0 mm 5 mps 761 mmHg 41%
    12:00 +21°C° 0 mm 4 mps 760 mmHg 39%
    13:00 +21°C° 0 mm 4 mps 760 mmHg 38%
    14:00 +21°C° 0 mm 3 mps 760 mmHg 37%
    15:00 +21°C° 0 mm 3 mps 760 mmHg 38%
    16:00 +20°C° 0 mm 3 mps 759 mmHg 39%
    17:00 +20°C° 0 mm 3 mps 759 mmHg 40%
    18:00 +19°C° 0 mm 3 mps 759 mmHg 44%
    19:00 +18°C° 0 mm 3 mps 759 mmHg 48%
    20:00 +17°C° 0 mm 3 mps 759 mmHg 53%
    21:00 +16°C° 0 mm 3 mps 759 mmHg 55%
    22:00 +16°C° 0 mm 3 mps 758 mmHg 58%
    23:00 +14°C° 0 mm 3 mps 758 mmHg 61%
    Show more